User: anonymous   Login
Location: Unspecified
(0.0000°N, 0.0000°E)
Time: 17:24:17
(UTC+00:00)
Language:

TATIANA - Orbit

View from above orbital plane
View from above orbital plane
View from above satellite
View from above satellite

Ground track
Ground track

The orbit data is extracted from the following two-line orbital elements,

1 28523U 05002C   18146.20382309  .00000043  00000-0  22560-4 0  9990
2 28523  82.9484 111.3527 0039620  89.8288 270.7416 13.87457695675718
Epoch (UTC): 26 May 2018 04:53:30
Eccentricity: 0.0039620
inclination: 82.9484°
perigee height: 908 km
apogee height: 966 km
right ascension of ascending node: 111.3527°
argument of perigee: 89.8288°
revolutions per day: 13.87457695
mean anomaly at epoch: 270.7416°
orbit number at epoch: 67571

The dashed part of the orbit path shows where the satellite is in the earth's shadow,  

DLR